Location: Bagnolo San Vito
(45.0833°N, 10.8833°E)
Time: 23:35:17
(UTC+00:00)

NOSS 3-3 (C) - Pass Details

Date: 03 March 2021
Orbit: 813 x 1399 km, 63.4° (Epoch: 15 April)

Event Time Altitude Azimuth Distance (km) Brightness Sun altitude
Rises 20:08:59 0° 322° (NW) 3,965 8.1 -32.2°
Reaches altitude 10° 20:11:33 10° 323° (NW) 3,081 7.3 -32.6°
Enters shadow 20:18:50 81° 18° (NNE) 1,296 4.4 -33.7°
